Regional Weather Roundup
Issued by NWS

Home | Current Version | Previous Version | Graphics & Text | Print | Product List | Glossary On
Versions: 1 2 3 4 5 6 7 8 9 10 11 12 13 14 15 16 17 18 19 20 21 22 23 24 25 26 27 28 29 30 31 32 33 34 35 36 37 38 39 40 41 42 43 44 45 46 47 48 49 50
000
ASUS45 KSLC 240410
RWRUT

UTAH REGIONAL WEATHER ROUNDUP
NATIONAL WEATHER SERVICE SALT LAKE CITY UT
1000 PM MDT TUE MAY 23 2017

UTZ001>011-023>025-240500-

NORTHERN UTAH

CITY           SKY/WX    TMP DP  RH WIND       PRES   REMARKS
BRIGHAM CITY   CLEAR     67  42  40 SE3       30.01R
HILL AFB       CLEAR     65  35  32 E9        30.03F
LOGAN          CLEAR     64  45  49 SE5       30.01S
OGDEN          CLEAR     63  38  39 S10       30.00F
SALT LAKE CITY PTCLDY    69  42  37 E8        30.00F
TOOELE VALLEY  CLEAR     55  46  71 S8        30.02S
WENDOVER       CLEAR     72  40  31 W7        30.00R
HEBER CITY     CLEAR     52  34  50 CALM      30.09S
WEST JORDAN    CLEAR     66  51  57 W7        30.04S

$$

UTZ011>015-024>027-240500-

CENTRAL/NORTHEAST UTAH

CITY           SKY/WX    TMP DP  RH WIND       PRES   REMARKS
PROVO AIRPORT  CLEAR     65  46  50 NE5       30.04S
MOAB/CANYONLAN CLEAR     66  26  22 E6        30.02S
DELTA          CLEAR     68  32  26 CALM      30.04S
PRICE          CLEAR     62  32  32 N7        30.10
RICHFIELD      CLEAR     59  36  41 CALM      30.11R
ROOSEVELT      CLEAR     61  34  36 NW6       30.10R
VERNAL         CLOUDY    60  39  45 W5        30.08R

$$

UTZ013>016-019>022-027-240500-

SOUTHERN UTAH

CITY           SKY/WX    TMP DP  RH WIND       PRES   REMARKS
BRYCE CANYON   CLEAR     48  27  44 W5        30.24S
CEDAR CITY     CLEAR     65  32  29 SE7       30.08R
MILFORD        CLEAR     61  32  33 S5        30.04R
ST GEORGE      CLEAR     78  33  19 SE8       29.90R
HANKSVILLE     CLEAR     70  30  23 NE8       30.03S
KANAB          CLEAR     63  32  31 E3        30.09R
BLANDING       CLEAR     55  30  38 N9        30.19F

$$

REGIONAL REPORTS     COLORADO/ARIZONA

CITY           SKY/WX    TMP DP  RH WIND       PRES   REMARKS
CRAIG, CO      CLEAR     45  34  65 CALM      30.14S
GRAND JUNCTION CLEAR     61  28  28 NE8       30.07R
RIFLE, CO      CLEAR     54  30  40 SE9       30.13R
MONTROSE, CO   CLEAR     55  30  38 SE8       30.16R
CORTEZ, CO     CLEAR     50  33  52 E7        30.13S
COLORADO CITY    N/A     61  36  39 E3        30.09R
PAGE, AZ       CLEAR     76  35  22 NE5       30.01R
GRAND CANYON   HAZE      49  27  42 CALM      30.21R VSB 1
KINGMAN, AZ    CLEAR     73  23  15 MISG      29.96R
FLAGSTAFF, AZ  CLEAR     54  27  35 CALM      30.22S

$$

REGIONAL REPORTS    NEVADA/IDAHO/WYOMING

CITY           SKY/WX    TMP DP  RH WIND       PRES   REMARKS
LAS VEGAS, NV  CLEAR     93  22   7 S3        29.82S
ELY, NY        CLEAR     62  24  23 W5        30.13R
ELKO, NV       CLEAR     65  37  35 CALM      30.06S
POCATELLO, ID  CLEAR     63  41  44 S10       29.98F
BURLEY, ID     CLEAR     62  44  51 SW7       29.96S
FORT BRIDGER,    N/A     53  37  52 W8        30.19S
EVANSTON, WY   CLEAR     53  35  50 SW8       30.18S
ROCK SPRINGS,  CLEAR     57  36  45 SW12      30.11S
KEMMERER, WY     N/A     52  37  58 CALM      30.17S

$$



USA.gov is the U.S. government's official web portal to all federal, state and local government web resources and services.